Regional Weather Roundup
Issued by NWS Sioux Falls, SD

Home | Current Version | Previous Version | Text Only | Print | Product List | Glossary Off
Versions: 1 2 3 4 5 6 7 8 9 10 11 12 13 14 15 16 17 18 19 20 21 22 23 24 25 26 27 28 29 30 31 32 33 34 35 36 37 38 39 40 41 42 43 44 45 46 47 48 49 50

000
ASUS43 KFSD 301110
RWRFSD

WEATHER ROUNDUP FOR SE SOUTH DAKOTA/SW MINNESOTA/NW IOWA
NATIONAL WEATHER SERVICE SIOUX FALLS SD
600 AM CDT TUE SEP 30 2014

NOTE: "FAIR" INDICATES FEW OR NO CLOUDS BELOW 12,000 FEET WITH NO
SIGNIFICANT WEATHER AND OR OBSTRUCTIONS TO VISIBILITY.


SDZ038>040-050-052>070-301200-
SOUTHEAST SOUTH DAKOTA

CITY           SKY/WX    TMP DP  RH WIND       PRES   REMARKS
CHAMBERLAIN    LGT RAIN  58  57  95 E16G24    29.71F
HURON          MOCLDY    54  50  86 SE13G22   29.80F
MADISON        PTSUNNY   48  48 100 SE7G16    29.89F
MITCHELL       MOCLDY    55  51  86 SE20G25   29.80F
SIOUX FALLS    MOCLDY    52  49  89 E14       29.89F
WINNER         FAIR      62  59  90 SE21      29.66F
YANKTON        CLOUDY    57  54  88 E13G20    29.84F
$$

MNZ071-072-080-081-089-090-097-098-301200-
SOUTHWEST MINNESOTA

CITY           SKY/WX    TMP DP  RH WIND       PRES   REMARKS
FAIRMONT       PTCLDY    45  41  87 E6        30.01R
JACKSON        CLOUDY    46  45  93 E8        29.99F
LUVERNE        CLOUDY    54  46  76 E8        29.93F
MARSHALL       CLOUDY    46  41  81 SE14G20   29.96F
MONTEVIDEO     CLOUDY    43  43 100 SE14      30.01S
PIPESTONE      MOCLDY    50  46  87 SE15G22   29.92S
REDWOOD FALLS  CLOUDY    44  41  89 E12G18    30.01F
TRACY          CLOUDY    47  46  94 E10       29.98F
WINDOM         CLOUDY    46  45  93 E12       29.98F
WORTHINGTON    CLOUDY    48  46  93 E13       29.97F
$$

IAZ001>003-012>014-020>022-031-032-NEZ013-014-SDZ071-301200-
NORTHWEST IOWA

CITY           SKY/WX    TMP DP  RH WIND       PRES   REMARKS
CHEROKEE       CLOUDY    52  52  99 E5        29.94S
DENISON        CLOUDY    57  57 100 E13       29.91F
ESTHERVILLE    MOCLDY    47  46  97 E8        29.98F
LE MARS          N/A     55  52  88 CALM      29.92S
ORANGE CITY    CLOUDY    54  48  82 E10       29.92S
SHELDON        CLOUDY    52  50  93 E10       29.92F
SIOUX CITY     MOCLDY    58  55  90 E10       29.89S
SPENCER        MOCLDY    51  48  89 E13       29.96F
STORM LAKE     CLOUDY    52  50  93 E10       29.95F
$$

ABBREVIATIONS USED IN REMARKS
   TC - TEMPERATURE IN CELSIUS
  WCI - WIND CHILL INDEX
   HX - HEAT INDEX
  VSB - VISIBILITY



USA.gov is the U.S. government's official web portal to all federal, state and local government web resources and services.